GFSNIL_prec_snow_297.txt.gz
Snowfall_Accumulation
0.0 0.0 0.0 0.0 0.0 0.0 0.0 0.0 0.0 0.0 0.0 0.0 0.0 0.0 0.0 0.0 0.0 0.0 0.0 0.0 0.0 0.0
0.6 0.8 0.9 0.0 0.0 0.0 0.0 0.0 0.0 0.0 0.0 0.0 0.0 0.0 0.0 0.0 0.0 0.0 0.0 0.0 0.0 0.0
0.9 1.1 1.0 1.1 0.0 0.0 0.6 0.0 0.0 0.0 0.0 0.0 0.0 0.0 0.0 0.0 0.0 0.0 0.0 0.0 0.0 0.0
0.5 0.2 1.0 0.8 0.5 0.5 0.0 0.0 1.0 0.0 0.0 0.0 0.0 0.0 0.0 0.0 0.0 0.0 0.0 0.0 0.0 0.0
1.3 0.9 0.2 0.9 0.7 0.5 0.0 0.0 0.0 1.7 0.0 0.0 0.0 0.0 0.0 0.0 0.0 0.0 0.0 0.0 0.0 0.0
0.9 1.2 0.6 0.0 0.0 0.8 0.7 0.0 1.3 2.0 2.0 0.0 0.0 0.0 0.0 0.0 0.0 0.0 0.0 0.0 0.0 0.0
0.4 0.5 0.4 0.2 0.0 1.6 1.0 0.7 0.9 1.0 1.4 1.0 0.0 0.0 1.5 0.0 0.0 0.0 0.0 0.0 0.0 0.0
0.3 0.9 0.8 0.7 0.5 0.3 1.6 1.2 0.4 1.0 0.9 0.9 0.0 0.0 1.9 0.3 0.9 0.9 0.6 0.4 1.1 1.1
0.9 0.2 1.3 0.6 0.6 0.1 0.1 1.1 0.0 1.1 0.8 0.8 0.0 0.0 1.8 0.4 2.4 3.1 4.1 3.7 2.7 2.2
1.0 0.4 0.2 0.4 0.3 0.5 0.7 0.9 0.4 2.2 2.0 0.8 0.1 0.0 1.4 0.9 2.6 5.8 5.9 6.0 4.0 2.5
0.8 0.0 0.0 0.3 0.3 0.2 0.2 1.6 1.3 1.0 0.8 3.7 3.9 3.2 4.1 4.8 6.5 6.1 5.7 4.4 2.2 1.3
0.2 0.2 0.2 1.0 0.5 2.1 3.2 6.0 6.0 7.6 8.5 7.1 5.9 0.8 3.2 5.2 6.2 6.4 3.4 0.7 0.3 0.3
1.3 3.4 6.2 3.0 2.4 7.2 6.6 5.5 6.0 6.5 5.1 3.7 4.0 0.8 2.5 3.2 6.9 7.4 3.6 2.0 0.5 0.4
2.7 3.8 4.9 6.3 5.8 6.3 7.5 7.0 5.5 4.2 2.2 1.6 2.5 2.4 2.2 2.9 6.7 8.5 8.4 4.4 0.9 0.6

GFSNIL_prec_snow_300.txt.gz
Snowfall_Accumulation
0.0 0.0 0.0 0.0 0.0 0.0 0.0 0.0 0.0 0.0 0.0 0.0 0.0 0.0 0.0 0.0 0.0 0.0 0.0 0.0 0.0 0.0
0.6 0.8 0.9 0.0 0.0 0.0 0.0 0.0 0.0 0.0 0.0 0.0 0.0 0.0 0.0 0.0 0.0 0.0 0.0 0.0 0.0 0.0
0.9 1.1 1.0 1.1 0.0 0.0 0.6 0.0 0.0 0.0 0.0 0.0 0.0 0.0 0.0 0.0 0.0 0.0 0.0 0.0 0.0 0.0
0.5 0.2 1.0 0.8 0.5 0.5 0.0 0.0 1.0 0.0 0.0 0.0 0.0 0.0 0.0 0.0 0.0 0.0 0.0 0.0 0.0 0.0
1.3 0.9 0.2 0.9 0.7 0.5 0.0 0.0 0.0 1.7 0.0 0.0 0.0 0.0 0.0 0.0 0.0 0.0 0.0 0.0 0.0 0.0
0.9 1.2 0.6 0.0 0.0 0.8 0.7 0.0 1.3 2.0 2.0 0.0 0.0 0.0 0.0 0.0 0.0 0.0 0.0 0.0 0.0 0.0
0.4 0.5 0.4 0.2 0.0 1.6 1.0 0.7 0.9 1.0 1.5 1.1 0.0 0.0 1.5 0.0 0.0 0.0 0.0 0.0 0.0 0.0
0.4 1.0 0.8 0.8 0.8 0.6 2.0 1.5 0.6 1.1 0.9 0.9 0.0 0.0 1.9 0.3 0.9 0.9 0.6 0.4 1.1 1.1
1.1 0.3 1.3 1.2 1.2 0.5 0.4 1.3 0.0 1.1 0.8 0.8 0.0 0.0 1.8 0.4 2.4 3.1 4.1 3.7 2.7 2.2
1.3 0.8 0.6 0.7 0.5 0.6 0.8 0.9 0.4 2.2 2.0 0.8 0.1 0.0 1.4 0.9 2.6 5.8 5.9 6.0 4.0 2.5
1.2 0.4 0.3 0.5 0.4 0.2 0.2 1.6 1.3 1.0 0.8 3.7 3.9 3.2 4.1 4.8 6.5 6.1 5.7 4.4 2.2 1.3
0.5 0.3 0.4 1.0 0.5 2.2 3.2 6.1 6.0 7.6 8.5 7.1 5.9 0.8 3.2 5.2 6.2 6.4 3.4 0.7 0.3 0.3
1.4 3.5 6.3 3.1 2.5 7.2 6.6 5.5 6.0 6.5 5.1 3.7 4.0 0.8 2.5 3.2 6.9 7.4 3.6 2.0 0.5 0.4
2.8 3.8 4.9 6.3 5.8 6.3 7.5 7.0 5.5 4.2 2.2 1.6 2.5 2.4 2.2 3.0 6.7 8.5 8.7 4.4 0.9 0.6

GFSNIL_prec_snow_303.txt.gz
Snowfall_Accumulation
0.0 0.0 0.0 0.0 0.0 0.0 0.0 0.0 0.0 0.0 0.0 0.0 0.0 0.0 0.0 0.0 0.0 0.0 0.0 0.0 0.0 0.0
0.6 0.8 0.9 0.0 0.0 0.0 0.0 0.0 0.0 0.0 0.0 0.0 0.0 0.0 0.0 0.0 0.0 0.0 0.0 0.0 0.0 0.0
0.9 1.1 1.0 1.1 0.0 0.0 0.6 0.0 0.0 0.0 0.0 0.0 0.0 0.0 0.0 0.0 0.0 0.0 0.0 0.0 0.0 0.0
0.5 0.2 1.0 0.8 0.5 0.5 0.0 0.0 1.0 0.0 0.0 0.0 0.0 0.0 0.0 0.0 0.0 0.0 0.0 0.0 0.0 0.0
1.3 0.9 0.2 0.9 0.7 0.5 0.0 0.0 0.0 1.7 0.0 0.0 0.0 0.0 0.0 0.0 0.0 0.0 0.0 0.0 0.0 0.0
0.9 1.2 0.6 0.0 0.0 0.8 0.7 0.0 1.3 2.0 2.0 0.0 0.0 0.0 0.0 0.0 0.0 0.0 0.0 0.0 0.0 0.0
0.5 0.6 0.5 0.3 0.1 1.6 1.0 0.7 0.9 1.0 1.5 1.1 0.0 0.0 1.5 0.0 0.0 0.0 0.0 0.0 0.0 0.0
0.4 1.1 1.0 1.0 1.0 0.8 2.1 1.6 0.7 1.2 0.9 0.9 0.0 0.0 1.9 0.3 0.9 0.9 0.6 0.4 1.1 1.1
1.3 0.6 1.6 1.5 1.6 0.9 0.7 1.6 0.2 1.2 0.8 0.8 0.0 0.0 1.8 0.4 2.4 3.1 4.1 3.7 2.7 2.2
1.4 1.0 0.9 1.1 0.9 1.0 1.1 1.1 0.4 2.2 2.0 0.8 0.1 0.0 1.4 0.9 2.6 5.8 5.9 6.0 4.0 2.5
1.5 0.6 0.6 0.8 0.7 0.5 0.4 1.7 1.5 1.1 0.8 3.7 3.9 3.2 4.1 4.8 6.5 6.1 5.7 4.4 2.2 1.3
0.7 0.6 0.6 1.3 0.9 2.6 3.6 6.4 6.1 7.6 8.5 7.1 5.9 0.8 3.2 5.2 6.2 6.4 3.4 0.7 0.3 0.3
1.7 3.9 6.6 3.4 2.8 7.4 6.8 5.5 6.0 6.5 5.1 3.7 4.0 0.8 2.5 3.2 6.9 7.4 3.6 2.0 0.5 0.4
3.1 4.1 5.2 6.5 5.9 6.3 7.6 7.0 5.5 4.2 2.2 1.6 2.5 2.4 2.2 3.0 6.7 8.5 8.9 4.4 0.9 0.6

GFSNIL_prec_snow_306.txt.gz
Snowfall_Accumulation
0.0 0.0 0.0 0.0 0.1 0.1 0.1 0.0 0.0 0.0 0.0 0.0 0.0 0.0 0.0 0.0 0.0 0.0 0.0 0.0 0.0 0.0
0.6 0.8 0.9 0.1 0.1 0.1 0.0 0.0 0.0 0.0 0.0 0.0 0.0 0.0 0.0 0.0 0.0 0.0 0.0 0.0 0.0 0.0
0.9 1.1 1.0 1.2 0.1 0.0 0.6 0.0 0.0 0.0 0.0 0.0 0.0 0.0 0.0 0.0 0.0 0.0 0.0 0.0 0.0 0.0
0.5 0.2 1.1 0.8 0.5 0.5 0.0 0.0 1.0 0.0 0.0 0.0 0.0 0.0 0.0 0.0 0.0 0.0 0.0 0.0 0.0 0.0
1.3 0.9 0.2 0.9 0.7 0.5 0.0 0.0 0.0 1.7 0.0 0.0 0.0 0.0 0.0 0.0 0.0 0.0 0.0 0.0 0.0 0.0
0.9 1.2 0.6 0.0 0.0 0.8 0.7 0.0 1.3 2.0 2.0 0.0 0.0 0.0 0.0 0.0 0.0 0.0 0.0 0.0 0.0 0.0
0.5 0.6 0.5 0.4 0.2 1.6 1.0 0.7 0.9 1.0 1.5 1.1 0.0 0.0 1.5 0.0 0.0 0.0 0.0 0.0 0.0 0.0
0.4 1.1 1.1 1.0 1.0 0.8 2.3 1.6 0.8 1.4 1.0 0.9 0.0 0.0 1.9 0.3 0.9 0.9 0.6 0.4 1.1 1.1
1.5 0.7 1.7 1.8 2.0 1.4 1.2 1.9 0.4 1.4 1.0 0.8 0.0 0.0 1.9 0.5 2.4 3.1 4.1 3.7 2.7 2.2
2.0 1.4 1.4 1.7 1.5 1.5 1.4 1.3 0.6 2.3 2.2 1.0 0.2 0.1 1.4 0.9 2.6 5.8 5.9 6.0 4.0 2.5
1.9 1.1 0.9 1.1 1.0 0.8 0.8 2.2 2.0 1.6 1.2 3.9 3.9 3.3 4.1 4.8 6.5 6.1 5.7 4.4 2.2 1.3
1.1 0.9 1.0 1.7 1.3 3.1 4.1 6.9 6.5 7.9 8.8 7.2 5.9 0.8 3.2 5.2 6.3 6.4 3.4 0.7 0.3 0.3
2.1 4.2 7.0 3.8 3.1 7.7 7.1 5.9 6.4 6.8 5.2 3.7 4.0 0.8 2.5 3.2 7.0 7.4 3.6 2.0 0.5 0.4
3.4 4.4 5.4 6.7 6.2 6.7 7.9 7.2 5.6 4.2 2.2 1.6 2.5 2.4 2.2 3.0 6.8 8.5 8.9 4.5 0.9 0.6